Weather History for South Lake Tahoe, CA

Change the Weather History Date:

Thursday, December 23, 2010

  Actual Average Record
Temperature  
Mean Temperature 30 °F 29 °F  
Max Temperature 42 °F 43 °F 55 °F (2005)
Min Temperature 17 °F 16 °F -14 °F (1990)
Degree Days  
Heating Degree Days 35 36  
Month to date heating degree days 673 804  
Since 1 July heating degree days 2599 2897  
Cooling Degree Days 0 0  
Month to date cooling degree days 0 0  
Year to date cooling degree days 43 31  
Moisture  
Dew Point 23 °F    
Average Humidity 73    
Maximum Humidity 92    
Minimum Humidity 53    
Precipitation  
Precipitation 0.00 in - 6.77 in (1964)
Month to date precipitation 5.47  
Year to date precipitation 25.46  
Snow  
Snow 0.00 in - - ()
Month to date snowfall 6.5  
Snow Depth 11.00 in    
Sea Level Pressure  
Sea Level Pressure 30.11 in    
Wind  
Wind Speed 2 mph (South)    
Max Wind Speed 8 mph    
Max Gust Speed 10 mph    
Visibility 6 miles    
Events      
T = Trace of Precipitation, MM = Missing Value Source: NWS Daily Summary

Daily Weather History Graph

Daily Weather History Graph

Search for Another Location

Airport:

Trip Planner

Search our weather history database for the weather conditions in past years. The results will help you decide how hot, cold, wet, or windy it might be!

Date:

Astronomy

Dec. 23, 2010 Rise Set
Actual Time 7:15 AM PST 4:42 PM PST
Civil Twilight 6:45 AM PST 5:12 PM PST
Nautical Twilight 6:12 AM PST 5:45 PM PST
Astronomical Twilight 5:39 AM PST 6:18 PM PST
Moon 7:41 PM PST (12/23) 9:04 AM PST (12/23)
Length of Visible Light 10h 26m
Length of Day
9h 26m
Waning Gibbous, 92% of the Moon is Illuminated
Dec 23
Waning Gibbous
Dec 27
Last Quarter
Jan 4
New
Jan 12
First Quarter
Jan 19
Full

Hourly Weather History & Observations

Time (PST) Temp. Windchill Dew Point Humidity Pressure Visibility Wind Dir Wind Speed Gust Speed Precip Events Conditions
12:42 AM 26.6 °F 22.6 °F 24.8 °F 93% 29.97 in 4.0 mi South 3.5 mph - N/A   Clear
12:50 AM 26.6 °F 20.0 °F 24.8 °F 93% 29.97 in 10.0 mi South 5.8 mph - N/A   Clear
12:53 AM 26.1 °F 20.5 °F 23.0 °F 88% 29.98 in 7.0 mi South 4.6 mph - N/A   Clear
12:57 AM 26.6 °F 21.2 °F 23.0 °F 86% 29.97 in 2.5 mi South 4.6 mph - N/A   Clear
1:08 AM 26.6 °F 22.6 °F 24.8 °F 93% 29.98 in 5.0 mi South 3.5 mph - N/A   Clear
1:23 AM 26.6 °F 21.2 °F 24.8 °F 93% 29.99 in 2.5 mi SSW 4.6 mph - N/A   Clear
1:35 AM 26.6 °F 21.2 °F 23.0 °F 86% 29.99 in 1.5 mi SSW 4.6 mph - N/A   Clear
1:40 AM 26.6 °F 20.0 °F 24.8 °F 93% 30.00 in 3.0 mi SSW 5.8 mph - N/A   Clear
1:53 AM 25.0 °F 20.7 °F 23.0 °F 92% 30.00 in 2.0 mi SSW 3.5 mph - N/A   Clear
1:57 AM 24.8 °F 19.1 °F 21.2 °F 86% 30.00 in 0.8 mi South 4.6 mph - N/A   Clear
2:08 AM 24.8 °F - 21.2 °F 86% 30.01 in 2.5 mi Calm Calm - N/A   Clear
2:21 AM 24.8 °F 20.5 °F 21.2 °F 86% 30.01 in 1.0 mi South 3.5 mph - N/A   Clear
2:29 AM 23.0 °F - 19.4 °F 86% 30.01 in 1.0 mi Calm Calm - N/A   Mist
2:34 AM 21.2 °F - 19.4 °F 93% 30.02 in 2.5 mi Calm Calm - N/A   Clear
2:42 AM 23.0 °F - 19.4 °F 86% 30.02 in 0.8 mi Calm Calm - N/A   Clear
2:53 AM 24.1 °F - 19.9 °F 84% 30.04 in 1.5 mi Calm Calm - N/A   Clear
2:58 AM 24.8 °F - 21.2 °F 86% 30.03 in 3.0 mi Calm Calm - N/A   Clear
3:07 AM 23.0 °F 17.0 °F 19.4 °F 86% 30.03 in 6.0 mi SSW 4.6 mph - N/A   Clear
3:53 AM 24.1 °F 16.0 °F 21.0 °F 88% 30.05 in 10.0 mi South 6.9 mph - N/A   Clear
4:53 AM 25.0 °F 18.1 °F 21.0 °F 85% 30.07 in 10.0 mi SSW 5.8 mph - N/A   Clear
5:53 AM 19.9 °F - 16.0 °F 85% 30.12 in 10.0 mi Calm Calm - N/A   Clear
6:53 AM 19.0 °F - 14.0 °F 81% 30.16 in 10.0 mi Calm Calm - N/A   Clear
7:53 AM 18.0 °F - 12.9 °F 81% 30.18 in 10.0 mi Calm Calm - N/A   Clear
8:53 AM 21.9 °F - 18.0 °F 85% 30.18 in 1.5 mi Calm Calm - N/A   Clear
9:04 AM 23.0 °F - 17.6 °F 80% 30.14 in 0.8 mi Calm Calm - N/A   Haze
9:09 AM 24.8 °F - 19.4 °F 80% 30.14 in 2.5 mi Calm Calm - N/A   Haze
9:11 AM 24.8 °F - 19.4 °F 80% 30.14 in 5.0 mi Calm Calm - N/A   Clear
9:53 AM 27.0 °F - 24.1 °F 89% 30.20 in 10.0 mi Calm Calm - N/A   Clear
10:53 AM 32.0 °F - 28.4 °F 87% 30.17 in 10.0 mi Calm Calm - N/A   Clear
11:53 AM 39.2 °F - 28.4 °F 65% 30.15 in 10.0 mi Calm Calm - N/A   Clear
12:53 PM 41.0 °F 39.0 °F 28.0 °F 60% 30.13 in 10.0 mi Variable 3.5 mph - N/A   Clear
1:53 PM 42.1 °F 39.2 °F 28.0 °F 58% 30.12 in 10.0 mi NNE 4.6 mph - N/A   Clear
2:53 PM 42.1 °F 38.4 °F 27.0 °F 55% 30.12 in 10.0 mi NNE 5.8 mph - N/A   Clear
3:53 PM 34.0 °F - 28.9 °F 82% 30.18 in 10.0 mi Calm Calm - N/A   Clear
4:53 PM 30.9 °F - 27.0 °F 85% 30.17 in 10.0 mi Calm Calm - N/A   Clear
5:53 PM 28.4 °F - 24.8 °F 86% 30.15 in 6.0 mi Calm Calm - N/A   Clear
5:56 PM 26.6 °F - 24.8 °F 93% 30.15 in 2.0 mi Calm Calm - N/A   Clear
6:03 PM 28.4 °F - 24.8 °F 86% 30.15 in 1.2 mi Calm Calm - N/A   Clear
6:07 PM 28.4 °F - 24.8 °F 86% 30.15 in 3.0 mi Calm Calm - N/A   Clear
6:14 PM 28.4 °F - 24.8 °F 86% 30.16 in 10.0 mi Calm Calm - N/A   Clear
6:18 PM 28.4 °F - 24.8 °F 86% 30.15 in 2.0 mi Calm Calm - N/A   Clear
6:21 PM 26.6 °F - 24.8 °F 93% 30.15 in 0.8 mi Calm Calm - N/A   Clear
6:34 PM 28.4 °F - 24.8 °F 86% 30.15 in 2.5 mi Calm Calm - N/A   Clear
6:41 PM 26.6 °F - 24.8 °F 93% 30.16 in 6.0 mi Calm Calm - N/A   Clear
6:53 PM 27.0 °F - 24.1 °F 89% 30.24 in 10.0 mi Calm Calm - N/A   Clear
6:56 PM 26.6 °F - 24.8 °F 93% 30.15 in 1.8 mi Calm Calm - N/A   Partly Cloudy
7:00 PM 26.6 °F - 24.8 °F 93% 30.16 in 0.8 mi Calm Calm - N/A   Mist
7:07 PM 26.6 °F - 24.8 °F 93% 30.16 in 1.2 mi Calm Calm - N/A   Partly Cloudy
7:16 PM 26.6 °F - 24.8 °F 93% 30.16 in 3.0 mi Calm Calm - N/A   Partly Cloudy
7:26 PM 26.6 °F - 24.8 °F 93% 30.16 in 8.0 mi Calm Calm - N/A   Clear
7:53 PM 27.0 °F - 24.1 °F 89% 30.25 in 8.0 mi Calm Calm - N/A   Clear
8:53 PM 26.6 °F 21.2 °F 21.2 °F 80% 30.16 in 10.0 mi South 4.6 mph - N/A   Clear
9:53 PM 25.0 °F - 21.0 °F 85% 30.22 in 10.0 mi Calm Calm - N/A   Clear
10:53 PM 23.0 °F 18.4 °F 19.9 °F 88% 30.21 in 9.0 mi South 3.5 mph - N/A   Clear
11:53 PM 21.9 °F - 18.0 °F 85% 30.18 in 10.0 mi Calm Calm - N/A   Clear